Regional Weather Roundup
Issued by NWS

Home | Current Version | Previous Version | Graphics & Text | Print | Product List | Glossary On
Versions: 1 2 3 4 5 6 7 8 9 10 11 12 13 14 15 16 17 18 19 20 21 22 23 24 25 26 27 28 29 30 31 32 33 34 35 36 37 38 39 40 41 42 43 44 45 46 47 48 49 50
000
ASUS45 KPSR 131510
RWRAZ

ARIZONA HOURLY REGIONAL WEATHER ROUNDUP
NATIONAL WEATHER SERVICE PHOENIX AZ
800 AM MST SAT FEB 13 2016

NOTE: FAIR INDICATES FEW OR NO CLOUDS BELOW 12,000 FEET WITH NO
SIGNIFICANT WEATHER AND/OR OBSTRUCTIONS TO VISIBILITY.

AZZ001>003-036-131600-
NORTHWEST ARIZONA

CITY           SKY/WX    TMP DP  RH WIND       PRES   REMARKS
BULLHEAD CITY  CLEAR     48  28  46 CALM      30.13R
KINGMAN        CLEAR     35  23  61 CALM      30.18S
$$

AZZ004>008-015-016-018-131600-
NORTH CENTRAL ARIZONA

CITY           SKY/WX    TMP DP  RH WIND       PRES   REMARKS
GRAND CANYON   CLEAR     25  20  81 E3        30.31S
WILLIAMS       CLEAR     32  18  55 S10       30.36S WCI  24
PRESCOTT       CLEAR     34  22  61 S3        30.26S
FLAGSTAFF      CLEAR     26  20  77 CALM      30.32S
PAYSON         CLEAR     45  14  29 CALM      30.27R
PAGE           CLEAR     37  30  75 SW3       30.28R
$$

AZZ009>014-017-131600-
NORTHEAST ARIZONA

CITY           SKY/WX    TMP DP  RH WIND       PRES   REMARKS
WINSLOW        PTCLDY    28  20  71 SE5       30.30R WCI  23
SAINT JOHNS    CLEAR     28  17  63 CALM      30.30R
WINDOW ROCK    CLEAR     26   0  32 S5        30.34R WCI  20
SHOW LOW       CLEAR     37  16  41 S7        30.32S WCI  32
$$

AZZ023-131600-
GREATER PHOENIX AREA

CITY           SKY/WX    TMP DP  RH WIND       PRES   REMARKS
PHOENIX        PTCLDY    57  32  38 E3        30.08R
BUCKEYE        CLEAR     45  32  61 N5        30.11R
GLENDALE       PTCLDY    48  34  57 CALM      30.11R
LUKE AFB       CLEAR     49  32  52 N5        30.08R
DEER VALLEY    CLEAR     55  27  34 N9        30.09R
SCOTTSDALE     CLEAR     52  35  52 CALM      30.10S
MESA-FALCON    CLEAR    N/A N/A N/A N12       30.09S
MESA-GATEWAY   PTCLDY    46  30  53 NE5       30.10R
CHANDLER       CLEAR     46  32  57 E7        30.09S
$$

AZZ027-028-131600-
SOUTHWEST MARICOPA COUNTY AND PINAL COUNTY

CITY           SKY/WX    TMP DP  RH WIND       PRES   REMARKS
CASA GRANDE    CLEAR     48  28  46 CALM      30.10S
GILA BEND      CLEAR     49  28  43 E7        30.06S
$$

AZZ503-504-507>509-131600-
SOUTHEAST ARIZONA

CITY           SKY/WX    TMP DP  RH WIND       PRES   REMARKS
TUCSON         CLEAR     51  21  30 SE12      30.14S
DAVIS-MONTHAN  CLEAR     54  18  24 S8        30.12S
RYAN FIELD     CLEAR     46  28  49 SE6       30.14R
NOGALES        PTCLDY    44  19  36 CALM      30.18R
SIERRA VISTA   SUNNY     50  20  31 CALM      30.23S
DOUGLAS        MOSUNNY   38  15  39 CALM      30.22R
SAFFORD        SUNNY     51  19  28 SE10      30.20R
$$

AZZ020-021-025-026-031-131600-
SOUTHWEST ARIZONA

CITY           SKY/WX    TMP DP  RH WIND       PRES   REMARKS
YUMA           CLEAR     53  30  41 NE3       30.04R
$$

CAZ031-033-041-043-047-048-061-131600-
SOUTHERN CALIFORNIA

CITY           SKY/WX    TMP DP  RH WIND       PRES   REMARKS
DOWNTOWN L.A.  CLEAR     52  49  89 CALM      30.10R
L.A. AIRPORT   PTCLDY    50  48  93 SE3       30.11R FOG
SAN DIEGO      CLOUDY    54  50  86 NW3       30.12R FOG
BURBANK        CLEAR     51  35  54 CALM      30.10R
ONTARIO        PTCLDY    51  35  54 NE3       30.11R
RIVERSIDE      CLEAR     50  33  52 CALM      30.12R
PALM SPRINGS   CLEAR     59  25  27 NW10      30.08R
EL CENTRO NAS  PTCLDY    47  19  33 W6        30.06R
IMPERIAL       CLEAR     50  26  39 W6        30.04R
BLYTHE         CLEAR     48  24  39 W3        30.08S
NEEDLES        CLEAR     50  26  39 CALM      30.12R
$$

NVZ020-UTZ003-131600-
SOUTHERN NEVADA-UTAH

CITY           SKY/WX    TMP DP  RH WIND       PRES   REMARKS
LAS VEGAS      PTCLDY    48  24  39 S5        30.14R
SALT LAKE CITY FOG       29  27  92 N5        30.31R VSB 1   WCI  24
$$

NMZ009-TXZ055-131600-
NEW MEXICO-WEST TEXAS

CITY           SKY/WX    TMP DP  RH WIND       PRES   REMARKS
ALBUQUERQUE    CLOUDY    34  20  56 CALM      30.32R
EL PASO        PTSUNNY   44  15  31 N9        30.27R
$$


........................KEY........................
SKY/WX - SKY CONDITION/WEATHER
TMP    - TEMPERATURE IN FAHRENHEIT
DP     - DEW POINT IN FAHRENHEIT
RH     - RELATIVE HUMIDITY IN PERCENT
WIND   - DIRECTION AND SPEED IN MILES PER HOUR (MPH)
VRB    - VARIABLE WIND DIRECTION
PRES   - MEAN SEA LEVEL PRESSURE IN INCHES OF MERCURY
         F - FALLING PRESSURE   R - RISING PRESSURE
         S - STEADY PRESSURE
VSB    - VISIBILITY IN MILES
HX     - HEAT INDEX IN FAHRENHEIT
WCI    - WIND CHILL INDEX IN FAHRENHEIT
TC     - TEMPERATURE IN CELSIUS WHICH IS ALSO KNOWN AS
         TEMPERATURE IN CENTIGRADE
AFB    - AIR FORCE BASE
         LUKE AFB IS LUKE AIR FORCE BASE
         DAVIS-MONTHAN IS DAVIS-MONTHAN AIR FORCE BASE
NAS    - NAVAL AIR STATION
         EL CENTRO NAS IS EL CENTRO NAVAL AIR STATION
N/A    - NOT AVAILABLE




USA.gov is the U.S. government's official web portal to all federal, state and local government web resources and services.